Home > Weather > Oberlin > Past weeks

Flag for USA Weather for the Past 2 Weeks in Oberlin, Ohio, USA

Now
52 °F

Light rain. Fog.


Feels Like: 49 °F
Forecast: 51 / 60 °F
Wind: 8 mph from Southeast

Location: Lorain County Regional Airport

Current Time: May 1, 2016 at 12:25:41 AM

Latest Report: Apr 30, 2016 at 11:53 PM


Visibility: 3 mi

Pressure: 29.92 "Hg

Humidity: 93%

Dew Point: 50 °F

Location of OberlinLocation

Historic Weather in Oberlin — Graph

°F

Oberlin Temperature Yesterday

Maximum temperature yesterday: 55 °F (at 2:53 PM)
Minimum temperature yesterday: 35 °F (at 4:53 AM)
Average temperature yesterday: 45 °F

High & Low Weather Summary for the Past Weeks

 TemperatureHumidityPressure
High79 °F (Apr 25, 4:53 PM)93% (Apr 29, 6:53 AM)30.45 "Hg (Apr 29, 6:53 AM)
Low34 °F (Apr 24, 5:53 AM)23% (Apr 18, 3:53 PM)29.66 "Hg (Apr 26, 2:53 AM)
Average53 °F63%30.09 "Hg
* Reported Apr 15 9:53 PM — Apr 30 9:53 PM, Oberlin, Weather by CustomWeather, © 2016

Note: Actual official high and low records may vary slightly from our data, if they occured in-between our weather recording intervals... More about our weather records

Advertising

Oberlin Weather History for the Previous 24 Hours

Scroll right to see more
 ConditionsComfort  
Time TempWeatherWind HumidityBarometerVisibility
9:53 PM
Sat, Apr 30
50 °FLight rain. Fog.9 mph89%29.98 "Hg4 mi
8:53 PM49 °FLight rain. Fog.7 mph93%30.02 "Hg5 mi
7:53 PM48 °FLight rain. Fog.5 mph93%30.04 "Hg3 mi
7:01 PM48 °FRain. Fog.9 mph89%30.03 "Hg2 mi
5:53 PM48 °FLight rain. Fog.8 mph89%30.04 "Hg4 mi
4:53 PM49 °FLight rain. Overcast.10 mph84%30.07 "Hg6 mi
3:53 PM50 °FLight rain. Overcast.9 mph80%30.09 "Hg10 mi
2:53 PM55 °FLight rain. Overcast.6 mph67%30.10 "Hg10 mi
1:53 PM54 °FScattered clouds.7 mph67%30.10 "Hg10 mi
12:53 PM51 °FPassing clouds.6 mph71%30.11 "Hg10 mi
11:53 AM49 °FPartly sunny.8 mph74%30.13 "Hg10 mi
10:53 AM46 °FPartly sunny.8 mph79%30.14 "Hg10 mi
9:53 AM46 °FSunny.13 mph77%30.14 "Hg10 mi
8:53 AM44 °FSunny.9 mph73%30.14 "Hg10 mi
7:53 AM41 °FSunny.6 mph86%30.16 "Hg7 mi
6:53 AM37 °FFog.3 mph93%30.16 "Hg1 mi
5:48 AM35 °FFog.3 mph92%30.15 "Hg3 mi
4:53 AM35 °FFog.3 mph92%30.14 "Hg2 mi
3:53 AM37 °FFog.No wind89%30.16 "Hg1 mi
2:53 AM38 °FClear.No wind90%30.15 "Hg7 mi
1:53 AM38 °FClear.5 mph90%30.15 "Hg7 mi
12:53 AM40 °FPassing clouds.No wind86%30.17 "Hg10 mi
Weather by CustomWeather, © 2016

See weather overviewHow to use our weather pages